SAS930 EKCH-KLAX

Flight info

Callsign SAS930
Flight time N/A
Altitude 36000
Route GOLGA DCT RETKA DCT ISVIG/M083F360 DCT 68N010W 71N020W 73N040W 73N060W DCT MEDPA/N0483F360 DCT 70N081W 65N094W 60N101W 55N105W DCT ITREK DCT LWT DCT TCH DCT DTA DCT BLD DCT OTOOL DCT BCALL DCT LEMMN DCT ANJLL ANJLL4
Aircraft A333/H-SDE3GHIJ2J3J5M1RVWXY/LB2D1

Departure

Time N/A
Airport Copenhagen Kastrup Airport (EKCH)

Arrival

Time 2026-05-06 10:02
Airport Los Angeles International Airport (KLAX)
Time Latitude Longitude Altitude Speed Heading
2026-05-06 01:49 69.43305 -14.19553 36319 ft 471 kts 313°
2026-05-06 01:49 69.45469 -14.26579 36318 ft 473 kts 314°
2026-05-06 01:50 69.49788 -14.40673 36323 ft 471 kts 314°
2026-05-06 01:50 69.54084 -14.54784 36342 ft 469 kts 314°
2026-05-06 01:51 69.58326 -14.68817 36345 ft 470 kts 313°
2026-05-06 01:51 69.61908 -14.80733 36342 ft 471 kts 312°
2026-05-06 01:52 69.66186 -14.95053 36343 ft 472 kts 312°
2026-05-06 01:52 69.70421 -15.09328 36361 ft 471 kts 312°
2026-05-06 01:53 69.74665 -15.23735 36363 ft 471 kts 313°
2026-05-06 01:53 69.78889 -15.38165 36361 ft 470 kts 311°
2026-05-06 01:54 69.83114 -15.52698 36370 ft 471 kts 312°
2026-05-06 01:54 69.87320 -15.67263 36382 ft 474 kts 313°
2026-05-06 01:55 69.91531 -15.81955 36386 ft 472 kts 311°
2026-05-06 01:55 69.95723 -15.96678 36384 ft 471 kts 313°
2026-05-06 01:56 69.99889 -16.11405 36387 ft 470 kts 311°
2026-05-06 01:56 70.04051 -16.26227 36411 ft 471 kts 311°
2026-05-06 01:57 70.08210 -16.41140 36413 ft 472 kts 311°
2026-05-06 01:57 70.12362 -16.56128 36412 ft 472 kts 311°
2026-05-06 01:58 70.16466 -16.71052 36426 ft 472 kts 312°
2026-05-06 01:58 70.20573 -16.86096 36427 ft 470 kts 311°
2026-05-06 01:59 70.24663 -17.01177 36440 ft 472 kts 312°
2026-05-06 01:59 70.28754 -17.16361 36436 ft 472 kts 310°
2026-05-06 02:00 70.32840 -17.31648 36447 ft 473 kts 310°
2026-05-06 02:00 70.36915 -17.47006 36456 ft 471 kts 309°
2026-05-06 02:01 70.40965 -17.62372 36457 ft 471 kts 311°
2026-05-06 02:01 70.44970 -17.77679 36465 ft 470 kts 310°
2026-05-06 02:02 70.48987 -17.93148 36467 ft 472 kts 311°
2026-05-06 02:02 70.53000 -18.08706 36481 ft 472 kts 309°
2026-05-06 02:03 70.57012 -18.24375 36482 ft 474 kts 309°
2026-05-06 02:03 70.60977 -18.39974 36480 ft 471 kts 310°
2026-05-06 02:04 70.64954 -18.55737 36486 ft 471 kts 310°
2026-05-06 02:04 70.68909 -18.71532 36501 ft 471 kts 310°
2026-05-06 02:05 70.72853 -18.87398 36502 ft 472 kts 309°
2026-05-06 02:05 70.76791 -19.03358 36506 ft 472 kts 309°
2026-05-06 02:06 70.80720 -19.19389 36506 ft 474 kts 308°
2026-05-06 02:06 70.84612 -19.35408 36525 ft 472 kts 308°
2026-05-06 02:07 70.88530 -19.51656 36520 ft 473 kts 309°
2026-05-06 02:07 70.92380 -19.67732 36527 ft 471 kts 309°
2026-05-06 02:08 70.96240 -19.83964 36534 ft 472 kts 308°
2026-05-06 02:08 70.99980 -20.00590 36549 ft 475 kts 302°
2026-05-06 02:09 71.03120 -20.18445 36550 ft 475 kts 301°
2026-05-06 02:09 71.06118 -20.36460 36551 ft 476 kts 299°
2026-05-06 02:10 71.09092 -20.54675 36559 ft 476 kts 300°
2026-05-06 02:10 71.12052 -20.72935 36554 ft 475 kts 298°
2026-05-06 02:11 71.15002 -20.91275 36570 ft 477 kts 298°
2026-05-06 02:11 71.17948 -21.09691 36581 ft 477 kts 298°
2026-05-06 02:12 71.20873 -21.28146 36586 ft 477 kts 298°
2026-05-06 02:12 71.23776 -21.46646 36586 ft 477 kts 298°
2026-05-06 02:13 71.26640 -21.65076 36589 ft 477 kts 298°
2026-05-06 02:13 71.29508 -21.83704 36601 ft 477 kts 297°
2026-05-06 02:14 71.32362 -22.02412 36590 ft 477 kts 297°
2026-05-06 02:14 71.35191 -22.21137 36599 ft 477 kts 297°
2026-05-06 02:15 71.38005 -22.39933 36604 ft 477 kts 297°
2026-05-06 02:15 71.40800 -22.58787 36604 ft 477 kts 297°
2026-05-06 02:16 71.43557 -22.77563 36606 ft 477 kts 296°
2026-05-06 02:16 71.46314 -22.96521 36599 ft 477 kts 296°
2026-05-06 02:17 71.49051 -23.15531 36601 ft 477 kts 296°
2026-05-06 02:17 71.51771 -23.34604 36602 ft 477 kts 296°
2026-05-06 02:18 71.54475 -23.53754 36596 ft 477 kts 296°
2026-05-06 02:18 71.57155 -23.72927 36608 ft 477 kts 295°
2026-05-06 02:19 71.59798 -23.92024 36595 ft 477 kts 295°
2026-05-06 02:19 71.62444 -24.11335 36593 ft 477 kts 295°
2026-05-06 02:20 71.66363 -24.40299 36592 ft 477 kts 295°
2026-05-06 02:21 71.68962 -24.59761 36577 ft 477 kts 295°
2026-05-06 02:21 71.71536 -24.79238 36577 ft 477 kts 295°
2026-05-06 02:22 71.74090 -24.98763 36592 ft 477 kts 294°
2026-05-06 02:22 71.76622 -25.18326 36605 ft 477 kts 294°
2026-05-06 02:23 71.79136 -25.37950 36606 ft 477 kts 294°
2026-05-06 02:23 71.81631 -25.57626 36622 ft 477 kts 294°
2026-05-06 02:24 71.84103 -25.77348 36633 ft 477 kts 294°
2026-05-06 02:24 71.86540 -25.97001 36636 ft 477 kts 293°
2026-05-06 02:25 71.88974 -26.16835 36643 ft 477 kts 293°
2026-05-06 02:25 71.91388 -26.36734 36653 ft 477 kts 293°
2026-05-06 02:26 71.93778 -26.56645 36646 ft 477 kts 293°
2026-05-06 02:26 71.96150 -26.76632 36650 ft 477 kts 292°
2026-05-06 02:27 71.98500 -26.96651 36645 ft 476 kts 292°
2026-05-06 02:27 72.00815 -27.16608 36646 ft 477 kts 292°
2026-05-06 02:28 72.03124 -27.36731 36647 ft 477 kts 292°
2026-05-06 02:28 72.05414 -27.56918 36649 ft 476 kts 292°
2026-05-06 02:29 72.07680 -27.77133 36645 ft 476 kts 291°
2026-05-06 02:29 72.09925 -27.97391 36658 ft 476 kts 291°
2026-05-06 02:30 72.12147 -28.17690 36653 ft 477 kts 291°
2026-05-06 02:30 72.14340 -28.37952 36652 ft 476 kts 291°
2026-05-06 02:31 72.16518 -28.58328 36669 ft 475 kts 291°
2026-05-06 02:31 72.18669 -28.78697 36668 ft 474 kts 290°
2026-05-06 02:32 72.20800 -28.99119 36669 ft 474 kts 290°
2026-05-06 02:32 72.22911 -29.19587 36695 ft 474 kts 290°
2026-05-06 02:33 72.24981 -29.39908 36695 ft 472 kts 290°
2026-05-06 02:33 72.25663 -29.46686 36704 ft 472 kts 290°
2026-05-06 02:34 72.29069 -29.80853 36713 ft 471 kts 291°
2026-05-06 02:34 72.31077 -30.01354 36712 ft 472 kts 290°
2026-05-06 02:35 72.33054 -30.21791 36694 ft 471 kts 290°
2026-05-06 02:35 72.35021 -30.42373 36700 ft 471 kts 289°
2026-05-06 02:36 72.36969 -30.63011 36702 ft 470 kts 290°
2026-05-06 02:36 72.38885 -30.83600 36714 ft 469 kts 290°
2026-05-06 02:37 72.40774 -31.04178 36700 ft 468 kts 290°
2026-05-06 02:37 72.42644 -31.24826 36704 ft 469 kts 289°
2026-05-06 02:38 72.44486 -31.45421 36714 ft 469 kts 288°
2026-05-06 02:38 72.46320 -31.66221 36709 ft 470 kts 288°
2026-05-06 02:39 72.48133 -31.87078 36706 ft 469 kts 288°
2026-05-06 02:39 72.49621 -32.04414 36713 ft 469 kts 288°
2026-05-06 02:40 72.51672 -32.28648 36721 ft 467 kts 288°
2026-05-06 02:40 72.53117 -32.45972 36722 ft 468 kts 288°
2026-05-06 02:41 72.54841 -32.66911 36724 ft 469 kts 287°
2026-05-06 02:41 72.56542 -32.87887 36728 ft 468 kts 287°
2026-05-06 02:42 72.58222 -33.08907 36729 ft 468 kts 287°
2026-05-06 02:42 72.59878 -33.29951 36726 ft 468 kts 287°
2026-05-06 02:43 72.61504 -33.50912 36724 ft 468 kts 287°
2026-05-06 02:43 72.63119 -33.72063 36721 ft 469 kts 286°
2026-05-06 02:44 72.64709 -33.93225 36728 ft 468 kts 286°
2026-05-06 02:44 72.66275 -34.14400 36726 ft 467 kts 286°
2026-05-06 02:45 72.67818 -34.35594 36723 ft 467 kts 285°
2026-05-06 02:45 72.69339 -34.56829 36719 ft 468 kts 285°
2026-05-06 02:46 72.70837 -34.78100 36722 ft 468 kts 285°
2026-05-06 02:46 72.72313 -34.99407 36722 ft 468 kts 285°
2026-05-06 02:47 72.73758 -35.20619 36719 ft 468 kts 285°
2026-05-06 02:47 72.75190 -35.42003 36713 ft 468 kts 284°
2026-05-06 02:48 72.76594 -35.63352 36714 ft 464 kts 284°
2026-05-06 02:48 72.77965 -35.84573 36710 ft 462 kts 284°
2026-05-06 02:49 72.79312 -36.05788 36709 ft 462 kts 284°
2026-05-06 02:49 72.80636 -36.27017 36709 ft 462 kts 284°
2026-05-06 02:50 72.81939 -36.48312 36710 ft 462 kts 284°
2026-05-06 02:50 72.83220 -36.69642 36712 ft 462 kts 283°
2026-05-06 02:51 72.84470 -36.90844 36713 ft 462 kts 283°
2026-05-06 02:51 72.85708 -37.12254 36712 ft 462 kts 283°
2026-05-06 02:52 72.86920 -37.33654 36705 ft 461 kts 283°
2026-05-06 02:52 72.88105 -37.54984 36715 ft 459 kts 283°
2026-05-06 02:53 72.89265 -37.76306 36715 ft 459 kts 283°
2026-05-06 02:53 72.90402 -37.97633 36723 ft 459 kts 282°
2026-05-06 02:54 72.91518 -38.18998 36718 ft 459 kts 282°
2026-05-06 02:54 72.92611 -38.40398 36722 ft 459 kts 282°
2026-05-06 02:55 72.93681 -38.61806 36715 ft 459 kts 282°
2026-05-06 02:55 72.94721 -38.83104 36720 ft 458 kts 281°
2026-05-06 02:56 72.95747 -39.04568 36721 ft 458 kts 281°
2026-05-06 02:56 72.96748 -39.26018 36728 ft 456 kts 281°
2026-05-06 02:57 72.97718 -39.47337 36727 ft 454 kts 281°
2026-05-06 02:57 72.98666 -39.68647 36727 ft 454 kts 281°
2026-05-06 02:58 72.99586 -39.89833 36730 ft 454 kts 281°
2026-05-06 02:58 73.00537 -40.11191 36732 ft 453 kts 282°
2026-05-06 02:59 73.01565 -40.32473 36733 ft 453 kts 282°
2026-05-06 02:59 73.02585 -40.53743 36734 ft 453 kts 281°
2026-05-06 03:00 73.03573 -40.75021 36732 ft 453 kts 281°
2026-05-06 03:00 73.04527 -40.96238 36735 ft 453 kts 281°
2026-05-06 03:01 73.05461 -41.17588 36732 ft 451 kts 281°
2026-05-06 03:01 73.06368 -41.38815 36736 ft 449 kts 281°
2026-05-06 03:02 73.07245 -41.59876 36735 ft 449 kts 281°
2026-05-06 03:02 73.08107 -41.81098 36736 ft 449 kts 280°
2026-05-06 03:03 73.08947 -42.02343 36736 ft 448 kts 280°
2026-05-06 03:03 73.09765 -42.23599 36736 ft 448 kts 280°
2026-05-06 03:04 73.10559 -42.44837 36737 ft 448 kts 279°
2026-05-06 03:04 73.11328 -42.65994 36733 ft 448 kts 279°
2026-05-06 03:05 73.12079 -42.87299 36733 ft 448 kts 279°
2026-05-06 03:05 73.12809 -43.08643 36735 ft 448 kts 279°
2026-05-06 03:06 73.13518 -43.30015 36732 ft 449 kts 279°
2026-05-06 03:06 73.14203 -43.51368 36727 ft 449 kts 278°
2026-05-06 03:07 73.14861 -43.72586 36728 ft 448 kts 278°
2026-05-06 03:07 73.15501 -43.93943 36728 ft 447 kts 278°
2026-05-06 03:08 73.16120 -44.15341 36724 ft 448 kts 278°
2026-05-06 03:08 73.16715 -44.36695 36722 ft 448 kts 278°
2026-05-06 03:09 73.17285 -44.57961 36716 ft 448 kts 278°
2026-05-06 03:09 73.17837 -44.79374 36720 ft 448 kts 277°
2026-05-06 03:10 73.18366 -45.00802 36712 ft 446 kts 277°
2026-05-06 03:10 73.18869 -45.22105 36717 ft 443 kts 277°
2026-05-06 03:11 73.19349 -45.43310 36715 ft 442 kts 277°
2026-05-06 03:11 73.19807 -45.64506 36715 ft 442 kts 277°
2026-05-06 03:12 73.20244 -45.85728 36708 ft 442 kts 276°
2026-05-06 03:12 73.20658 -46.06933 36708 ft 442 kts 276°
2026-05-06 03:13 73.21048 -46.28033 36708 ft 442 kts 276°
2026-05-06 03:13 73.21419 -46.49299 36703 ft 442 kts 276°
2026-05-06 03:14 73.21768 -46.70555 36703 ft 443 kts 276°
2026-05-06 03:14 73.22096 -46.91824 36692 ft 442 kts 276°
2026-05-06 03:15 73.22397 -47.12897 36700 ft 439 kts 276°
2026-05-06 03:15 73.22679 -47.33994 36692 ft 438 kts 275°
2026-05-06 03:16 73.22939 -47.55091 36692 ft 438 kts 275°
2026-05-06 03:16 73.23178 -47.76180 36691 ft 438 kts 275°
2026-05-06 03:17 73.23395 -47.97289 36690 ft 438 kts 275°
2026-05-06 03:17 73.23589 -48.18264 36679 ft 438 kts 275°
2026-05-06 03:18 73.23764 -48.39380 36666 ft 438 kts 274°
2026-05-06 03:18 73.23916 -48.60499 36674 ft 438 kts 274°
2026-05-06 03:19 73.24048 -48.81631 36674 ft 438 kts 274°
2026-05-06 03:19 73.24157 -49.02735 36664 ft 435 kts 274°
2026-05-06 03:20 73.24279 -49.33955 36655 ft 433 kts 273°
2026-05-06 03:20 73.24336 -49.54877 36654 ft 434 kts 273°
2026-05-06 03:21 73.24371 -49.75792 36614 ft 434 kts 273°
2026-05-06 03:21 73.24384 -49.96697 36612 ft 434 kts 273°
2026-05-06 03:22 73.24377 -50.17594 36613 ft 433 kts 272°
2026-05-06 03:22 73.24349 -50.38489 36607 ft 433 kts 272°
2026-05-06 03:23 73.24300 -50.59218 36580 ft 433 kts 272°
2026-05-06 03:23 73.24230 -50.80067 36546 ft 433 kts 271°
2026-05-06 03:24 73.24139 -51.00868 36583 ft 430 kts 271°
2026-05-06 03:24 73.24027 -51.21535 36581 ft 428 kts 271°
2026-05-06 03:25 73.23896 -51.42184 36580 ft 429 kts 271°
2026-05-06 03:25 73.23745 -51.62835 36577 ft 429 kts 271°
2026-05-06 03:26 73.23573 -51.83485 36590 ft 429 kts 270°
2026-05-06 03:26 73.23380 -52.04151 36594 ft 429 kts 270°
2026-05-06 03:27 73.23166 -52.24790 36594 ft 429 kts 270°
2026-05-06 03:27 73.22933 -52.45317 36591 ft 429 kts 270°
2026-05-06 03:28 73.22678 -52.65941 36585 ft 429 kts 269°
2026-05-06 03:28 73.22403 -52.86595 36562 ft 428 kts 269°
2026-05-06 03:29 73.22109 -53.07103 36544 ft 425 kts 269°
2026-05-06 03:29 73.21850 -53.24084 36538 ft 425 kts 269°
2026-05-06 03:30 73.21520 -53.44534 36541 ft 425 kts 268°
2026-05-06 03:30 73.21169 -53.64978 36513 ft 426 kts 268°
2026-05-06 03:31 73.20798 -53.85447 36484 ft 426 kts 268°
2026-05-06 03:31 73.20407 -54.05875 36491 ft 426 kts 268°
2026-05-06 03:32 73.19999 -54.26162 36488 ft 426 kts 267°
2026-05-06 03:32 73.19567 -54.46601 36445 ft 426 kts 267°
2026-05-06 03:33 73.19115 -54.67026 36441 ft 426 kts 267°
2026-05-06 03:33 73.18644 -54.87407 36441 ft 425 kts 266°
2026-05-06 03:34 73.18158 -55.07587 36440 ft 423 kts 266°
2026-05-06 03:34 73.17649 -55.27847 36427 ft 424 kts 266°
2026-05-06 03:35 73.17120 -55.48135 36426 ft 424 kts 265°
2026-05-06 03:35 73.16571 -55.68402 36433 ft 424 kts 265°
2026-05-06 03:36 73.16002 -55.88661 36434 ft 424 kts 265°
2026-05-06 03:36 73.15413 -56.08890 36431 ft 424 kts 265°
2026-05-06 03:37 73.14804 -56.29137 36426 ft 424 kts 265°
2026-05-06 03:37 73.14175 -56.49375 36431 ft 424 kts 265°
2026-05-06 03:38 73.13526 -56.69583 36408 ft 424 kts 264°
2026-05-06 03:38 73.12863 -56.89627 36429 ft 424 kts 264°
2026-05-06 03:39 73.12176 -57.09771 36435 ft 423 kts 264°
2026-05-06 03:39 73.11470 -57.29879 36437 ft 423 kts 263°
2026-05-06 03:40 73.10744 -57.49989 36428 ft 423 kts 263°
2026-05-06 03:40 73.09999 -57.70062 36444 ft 423 kts 263°
2026-05-06 03:41 73.09236 -57.90102 36445 ft 423 kts 263°
2026-05-06 03:41 73.08457 -58.10014 36437 ft 423 kts 263°
2026-05-06 03:42 73.07654 -58.30020 36466 ft 423 kts 262°
2026-05-06 03:42 73.06829 -58.50079 36446 ft 425 kts 262°
2026-05-06 03:43 73.05982 -58.70175 36439 ft 425 kts 262°
2026-05-06 03:43 73.05119 -58.90151 36447 ft 422 kts 261°
2026-05-06 03:44 73.04240 -59.10055 36452 ft 422 kts 261°
2026-05-06 03:44 73.03342 -59.29916 36450 ft 422 kts 261°
2026-05-06 03:45 73.02424 -59.49779 36450 ft 422 kts 261°
2026-05-06 03:45 73.01488 -59.69596 36461 ft 422 kts 261°
2026-05-06 03:46 73.00539 -59.89282 36477 ft 422 kts 260°
2026-05-06 03:46 72.99699 -60.09199 36458 ft 425 kts 263°
2026-05-06 03:47 72.99183 -60.29371 36462 ft 426 kts 264°
2026-05-06 03:47 72.98713 -60.49523 36462 ft 426 kts 264°
2026-05-06 03:48 72.98194 -60.69649 36446 ft 425 kts 263°
2026-05-06 03:48 72.97632 -60.89705 36464 ft 423 kts 263°
2026-05-06 03:49 72.97044 -61.09654 36464 ft 422 kts 263°
2026-05-06 03:49 72.96442 -61.29441 36467 ft 422 kts 263°
2026-05-06 03:50 72.95817 -61.49346 36475 ft 423 kts 262°
2026-05-06 03:50 72.95169 -61.69376 36468 ft 426 kts 262°
2026-05-06 03:51 72.94500 -61.89455 36471 ft 426 kts 262°
2026-05-06 03:51 72.93812 -62.09512 36475 ft 426 kts 262°
2026-05-06 03:52 72.93108 -62.29423 36475 ft 426 kts 262°
2026-05-06 03:52 72.92381 -62.49443 36471 ft 426 kts 261°
2026-05-06 03:53 72.91633 -62.69446 36477 ft 426 kts 261°
2026-05-06 03:53 72.90867 -62.89409 36476 ft 426 kts 261°
2026-05-06 03:54 72.90082 -63.09336 36476 ft 426 kts 261°
2026-05-06 03:54 72.89277 -63.29254 36478 ft 426 kts 261°
2026-05-06 03:55 72.88453 -63.49159 36478 ft 425 kts 261°
2026-05-06 03:55 72.87610 -63.69032 36479 ft 425 kts 260°
2026-05-06 03:56 72.86747 -63.88896 36479 ft 425 kts 260°
2026-05-06 03:56 72.85870 -64.08606 36476 ft 425 kts 260°
2026-05-06 03:57 72.84969 -64.28420 36476 ft 425 kts 260°
2026-05-06 03:57 72.84048 -64.48236 36482 ft 427 kts 259°
2026-05-06 03:58 72.83100 -64.68169 36483 ft 429 kts 259°
2026-05-06 03:58 72.82131 -64.88115 36481 ft 429 kts 259°
2026-05-06 03:59 72.81151 -65.07883 36481 ft 427 kts 258°
2026-05-06 03:59 72.80150 -65.27655 36481 ft 426 kts 258°
2026-05-06 04:00 72.79131 -65.47390 36481 ft 426 kts 258°
2026-05-06 04:00 72.78091 -65.67120 36481 ft 426 kts 258°
2026-05-06 04:01 72.77034 -65.86791 36478 ft 426 kts 258°
2026-05-06 04:01 72.75954 -66.06505 36481 ft 429 kts 257°
2026-05-06 04:02 72.74847 -66.26338 36481 ft 431 kts 257°
2026-05-06 04:02 72.73720 -66.46158 36482 ft 431 kts 257°
2026-05-06 04:03 72.72582 -66.65831 36480 ft 431 kts 257°
2026-05-06 04:03 72.71415 -66.85621 36479 ft 431 kts 257°
2026-05-06 04:04 72.70231 -67.05343 36469 ft 430 kts 256°
2026-05-06 04:04 72.69030 -67.25000 36477 ft 429 kts 256°
2026-05-06 04:05 72.67813 -67.44594 36477 ft 429 kts 256°
2026-05-06 04:05 72.66543 -67.64281 36476 ft 432 kts 253°
2026-05-06 04:06 72.64430 -67.83076 36482 ft 431 kts 244°
2026-05-06 04:06 72.61890 -68.01111 36486 ft 431 kts 243°
2026-05-06 04:07 72.59240 -68.19083 36489 ft 430 kts 243°
2026-05-06 04:07 72.56577 -68.37019 36474 ft 430 kts 243°
2026-05-06 04:08 72.53918 -68.54886 36471 ft 430 kts 243°
2026-05-06 04:08 72.51249 -68.72713 36478 ft 430 kts 242°
2026-05-06 04:09 72.48590 -68.90331 36476 ft 428 kts 242°
2026-05-06 04:09 72.45904 -69.07961 36478 ft 430 kts 242°
2026-05-06 04:10 72.43174 -69.25720 36477 ft 433 kts 242°
2026-05-06 04:10 72.40424 -69.43453 36478 ft 433 kts 241°
2026-05-06 04:11 72.37654 -69.61162 36474 ft 433 kts 241°
2026-05-06 04:11 72.34891 -69.78675 36472 ft 433 kts 241°
2026-05-06 04:12 72.32091 -69.96267 36476 ft 433 kts 241°
2026-05-06 04:12 72.29277 -70.13786 36468 ft 433 kts 240°
2026-05-06 04:13 72.26464 -70.31155 36474 ft 430 kts 240°
2026-05-06 04:13 72.23648 -70.48408 36469 ft 429 kts 240°
2026-05-06 04:14 72.20814 -70.65615 36479 ft 431 kts 240°
2026-05-06 04:14 72.17938 -70.82928 36471 ft 435 kts 240°
2026-05-06 04:15 72.15034 -71.00274 36468 ft 436 kts 239°
2026-05-06 04:15 72.12132 -71.17458 36467 ft 435 kts 239°
2026-05-06 04:16 72.09196 -71.34702 36467 ft 435 kts 239°
2026-05-06 04:16 72.06247 -71.51870 36454 ft 435 kts 239°
2026-05-06 04:17 72.03290 -71.68947 36460 ft 433 kts 239°
2026-05-06 04:17 72.00330 -71.85907 36463 ft 433 kts 238°
2026-05-06 04:18 71.97355 -72.02813 36462 ft 433 kts 238°
2026-05-06 04:18 71.94872 -72.16816 36479 ft 433 kts 238°
2026-05-06 04:19 71.91353 -72.36495 36463 ft 438 kts 238°
2026-05-06 04:19 71.88298 -72.53443 36459 ft 438 kts 238°
2026-05-06 04:20 71.85726 -72.67603 36460 ft 438 kts 238°
2026-05-06 04:20 71.82661 -72.84355 36456 ft 438 kts 237°
2026-05-06 04:21 71.79569 -73.01115 36460 ft 436 kts 237°
2026-05-06 04:21 71.76463 -73.17818 36463 ft 436 kts 237°
2026-05-06 04:22 71.73346 -73.34445 36462 ft 436 kts 237°
2026-05-06 04:23 71.68667 -73.59167 36460 ft 436 kts 237°
2026-05-06 04:23 71.65508 -73.75692 36455 ft 439 kts 237°
2026-05-06 04:24 71.62309 -73.92294 36452 ft 441 kts 237°
2026-05-06 04:24 71.59097 -74.08840 36431 ft 441 kts 236°
2026-05-06 04:25 71.55872 -74.25322 36429 ft 440 kts 236°
2026-05-06 04:25 71.52661 -74.41606 36435 ft 440 kts 236°
2026-05-06 04:26 71.49411 -74.57956 36434 ft 440 kts 236°
2026-05-06 04:26 71.46151 -74.74231 36432 ft 440 kts 236°
2026-05-06 04:27 71.42876 -74.90457 36410 ft 439 kts 236°
2026-05-06 04:27 71.39590 -75.06618 36413 ft 439 kts 235°
2026-05-06 04:28 71.36301 -75.22672 36408 ft 442 kts 235°
2026-05-06 04:28 71.32958 -75.38864 36388 ft 443 kts 235°
2026-05-06 04:29 71.29601 -75.55006 36394 ft 443 kts 235°
2026-05-06 04:29 71.26233 -75.71078 36386 ft 443 kts 234°
2026-05-06 04:30 71.22857 -75.87063 36388 ft 443 kts 234°
2026-05-06 04:30 71.19465 -76.03002 36375 ft 442 kts 234°
2026-05-06 04:31 71.16074 -76.18820 36369 ft 443 kts 234°
2026-05-06 04:31 71.12656 -76.34648 36367 ft 442 kts 234°
2026-05-06 04:32 71.09226 -76.50416 36387 ft 442 kts 234°
2026-05-06 04:32 71.05766 -76.66200 36350 ft 446 kts 233°
2026-05-06 04:33 71.02302 -76.81888 36350 ft 446 kts 233°
2026-05-06 04:33 70.98802 -76.97627 36348 ft 446 kts 233°
2026-05-06 04:34 70.95281 -77.13344 36337 ft 446 kts 233°
2026-05-06 04:34 70.91756 -77.28962 36334 ft 446 kts 233°
2026-05-06 04:35 70.88244 -77.44413 36339 ft 446 kts 233°
2026-05-06 04:35 70.84693 -77.59923 36321 ft 446 kts 233°
2026-05-06 04:36 70.81134 -77.75351 36322 ft 446 kts 233°
2026-05-06 04:36 70.77557 -77.90751 36322 ft 446 kts 232°
2026-05-06 04:37 70.73968 -78.06091 36314 ft 446 kts 232°
2026-05-06 04:37 70.70367 -78.21373 36306 ft 445 kts 232°
2026-05-06 04:38 70.66772 -78.36520 36306 ft 445 kts 232°
2026-05-06 04:38 70.63145 -78.51694 36297 ft 445 kts 232°
2026-05-06 04:39 70.59508 -78.66802 36295 ft 445 kts 232°
2026-05-06 04:39 70.55861 -78.81851 36296 ft 445 kts 232°
2026-05-06 04:40 70.52203 -78.96837 36287 ft 445 kts 231°
2026-05-06 04:40 70.48561 -79.11652 36287 ft 444 kts 231°
2026-05-06 04:41 70.44873 -79.26551 36292 ft 448 kts 231°
2026-05-06 04:41 70.41141 -79.41526 36281 ft 449 kts 231°
2026-05-06 04:42 70.37400 -79.56434 36280 ft 449 kts 231°
2026-05-06 04:42 70.33648 -79.71279 36284 ft 449 kts 231°
2026-05-06 04:43 70.29907 -79.85984 36279 ft 449 kts 231°
2026-05-06 04:43 70.26127 -80.00734 36273 ft 449 kts 230°
2026-05-06 04:44 70.22343 -80.15405 36279 ft 448 kts 230°
2026-05-06 04:44 70.18545 -80.30025 36279 ft 448 kts 230°
2026-05-06 04:45 70.14738 -80.44583 36302 ft 448 kts 230°
2026-05-06 04:45 70.10929 -80.59051 36282 ft 452 kts 230°
2026-05-06 04:46 70.07065 -80.73625 36279 ft 453 kts 230°
2026-05-06 04:46 70.03182 -80.88177 36281 ft 453 kts 230°
2026-05-06 04:47 69.99284 -81.02647 36281 ft 453 kts 229°
2026-05-06 04:47 69.95326 -81.16932 36275 ft 452 kts 229°
2026-05-06 04:48 69.91340 -81.31112 36278 ft 452 kts 228°
2026-05-06 04:48 69.87369 -81.45162 36271 ft 452 kts 228°
2026-05-06 04:49 69.83374 -81.59230 36271 ft 452 kts 228°
2026-05-06 04:49 69.79360 -81.73279 36272 ft 453 kts 228°
2026-05-06 04:50 69.75315 -81.87347 36273 ft 455 kts 228°
2026-05-06 04:50 69.71251 -82.01389 36270 ft 455 kts 228°
2026-05-06 04:51 69.67204 -82.15280 36272 ft 455 kts 227°
2026-05-06 04:51 69.63117 -82.29215 36272 ft 456 kts 227°
2026-05-06 04:52 69.59024 -82.43080 36263 ft 455 kts 227°
2026-05-06 04:52 69.54912 -82.56921 36271 ft 455 kts 227°
2026-05-06 04:53 69.50793 -82.70693 36283 ft 456 kts 227°
2026-05-06 04:53 69.46666 -82.84403 36287 ft 455 kts 227°
2026-05-06 04:54 69.42520 -82.98085 36269 ft 457 kts 227°
2026-05-06 04:54 69.38350 -83.11762 36259 ft 458 kts 227°
2026-05-06 04:55 69.34164 -83.25402 36265 ft 459 kts 226°
2026-05-06 04:55 69.29966 -83.38995 36265 ft 458 kts 226°
2026-05-06 04:56 69.25788 -83.52436 36260 ft 458 kts 226°
2026-05-06 04:56 69.21569 -83.65920 36260 ft 458 kts 226°
2026-05-06 04:57 69.17340 -83.79352 36258 ft 458 kts 226°
2026-05-06 04:57 69.13096 -83.92748 36252 ft 458 kts 226°
2026-05-06 04:58 69.08846 -84.06077 36251 ft 459 kts 226°
2026-05-06 04:58 69.04595 -84.19325 36252 ft 461 kts 226°
2026-05-06 04:59 69.00304 -84.32611 36246 ft 461 kts 226°
2026-05-06 04:59 68.95990 -84.45887 36241 ft 461 kts 226°
2026-05-06 05:00 68.91679 -84.59074 36239 ft 460 kts 225°
2026-05-06 05:00 68.87365 -84.72184 36238 ft 459 kts 225°
2026-05-06 05:01 68.83068 -84.85164 36236 ft 459 kts 225°
2026-05-06 05:01 68.78743 -84.98145 36235 ft 459 kts 225°
2026-05-06 05:02 68.74406 -85.11082 36246 ft 459 kts 225°
2026-05-06 05:02 68.70043 -85.24017 36232 ft 462 kts 225°
2026-05-06 05:03 68.65658 -85.36939 36221 ft 462 kts 225°
2026-05-06 05:03 68.61263 -85.49809 36228 ft 462 kts 225°
2026-05-06 05:04 68.56886 -85.62549 36228 ft 462 kts 225°
2026-05-06 05:04 68.52472 -85.75320 36218 ft 462 kts 225°
2026-05-06 05:05 68.48050 -85.88034 36216 ft 462 kts 224°
2026-05-06 05:05 68.43618 -86.00700 36219 ft 462 kts 224°
2026-05-06 05:06 68.39174 -86.13323 36213 ft 462 kts 224°
2026-05-06 05:06 68.34742 -86.25835 36217 ft 464 kts 224°
2026-05-06 05:07 68.30255 -86.38430 36218 ft 465 kts 224°
2026-05-06 05:07 68.25757 -86.50976 36214 ft 465 kts 224°
2026-05-06 05:08 68.21247 -86.63482 36212 ft 465 kts 224°
2026-05-06 05:08 68.16732 -86.75926 36214 ft 465 kts 224°
2026-05-06 05:09 68.12974 -86.86226 36211 ft 465 kts 224°
2026-05-06 05:09 68.07704 -87.00586 36217 ft 465 kts 224°
2026-05-06 05:10 68.03896 -87.10901 36216 ft 465 kts 223°
2026-05-06 05:10 67.99347 -87.23153 36218 ft 466 kts 224°
2026-05-06 05:11 67.94791 -87.35351 36217 ft 467 kts 224°
2026-05-06 05:11 67.90195 -87.47590 36219 ft 467 kts 223°
2026-05-06 05:12 67.85594 -87.59766 36219 ft 467 kts 223°
2026-05-06 05:12 67.80975 -87.71920 36222 ft 467 kts 223°
2026-05-06 05:13 67.76384 -87.83926 36227 ft 467 kts 223°
2026-05-06 05:13 67.71755 -87.95960 36224 ft 467 kts 223°
2026-05-06 05:14 67.67117 -88.07950 36225 ft 467 kts 223°
2026-05-06 05:14 67.62474 -88.19881 36228 ft 468 kts 223°
2026-05-06 05:15 67.57802 -88.31817 36224 ft 469 kts 223°
2026-05-06 05:15 67.53116 -88.43722 36217 ft 469 kts 223°
2026-05-06 05:16 67.48448 -88.55509 36223 ft 470 kts 223°
2026-05-06 05:16 67.43736 -88.67341 36225 ft 470 kts 223°
2026-05-06 05:17 67.39019 -88.79117 36220 ft 470 kts 222°
2026-05-06 05:17 67.34299 -88.90832 36222 ft 470 kts 222°
2026-05-06 05:18 67.29569 -89.02505 36222 ft 470 kts 222°
2026-05-06 05:18 67.24846 -89.14093 36217 ft 470 kts 222°
2026-05-06 05:19 67.20096 -89.25682 36218 ft 470 kts 222°
2026-05-06 05:19 67.15337 -89.37226 36227 ft 470 kts 222°
2026-05-06 05:20 67.10566 -89.48736 36219 ft 470 kts 221°
2026-05-06 05:20 67.05792 -89.60186 36219 ft 470 kts 221°
2026-05-06 05:21 67.01011 -89.71589 36214 ft 470 kts 221°
2026-05-06 05:21 66.96213 -89.82968 36214 ft 470 kts 221°
2026-05-06 05:22 66.91414 -89.94283 36214 ft 470 kts 221°
2026-05-06 05:22 66.86633 -90.05495 36215 ft 471 kts 221°
2026-05-06 05:23 66.81793 -90.16782 36214 ft 472 kts 221°
2026-05-06 05:23 66.74520 -90.33624 36203 ft 472 kts 221°
2026-05-06 05:24 66.69661 -90.44799 36206 ft 472 kts 221°
2026-05-06 05:24 66.64828 -90.55851 36206 ft 472 kts 221°
2026-05-06 05:25 66.59951 -90.66943 36196 ft 472 kts 220°
2026-05-06 05:25 66.55070 -90.77984 36199 ft 471 kts 221°
2026-05-06 05:26 66.50185 -90.88971 36194 ft 471 kts 220°
2026-05-06 05:26 66.45318 -90.99855 36194 ft 473 kts 221°
2026-05-06 05:27 66.40394 -91.10814 36197 ft 474 kts 220°
2026-05-06 05:27 66.35461 -91.21728 36176 ft 474 kts 221°
2026-05-06 05:28 66.30527 -91.32586 36171 ft 474 kts 219°
2026-05-06 05:28 66.25573 -91.43429 36183 ft 474 kts 220°
2026-05-06 05:29 66.20646 -91.54152 36189 ft 475 kts 220°
2026-05-06 05:29 66.15662 -91.64943 36189 ft 476 kts 220°
2026-05-06 05:30 66.10665 -91.75703 36171 ft 476 kts 220°
2026-05-06 05:30 66.05652 -91.86435 36173 ft 477 kts 220°
2026-05-06 05:31 66.00629 -91.97136 36174 ft 477 kts 220°
2026-05-06 05:31 65.95637 -92.07714 36172 ft 477 kts 220°
2026-05-06 05:32 65.90599 -92.18329 36173 ft 477 kts 220°
2026-05-06 05:32 65.85548 -92.28916 36173 ft 478 kts 220°
2026-05-06 05:33 65.80482 -92.39474 36167 ft 478 kts 220°
2026-05-06 05:33 65.75445 -92.49921 36169 ft 478 kts 219°
2026-05-06 05:34 65.70364 -92.60394 36162 ft 479 kts 220°
2026-05-06 05:34 65.65253 -92.70879 36163 ft 481 kts 220°
2026-05-06 05:35 65.60125 -92.81346 36160 ft 481 kts 220°
2026-05-06 05:35 65.55027 -92.91695 36152 ft 482 kts 219°
2026-05-06 05:36 65.49886 -93.02074 36161 ft 482 kts 219°
2026-05-06 05:36 65.44726 -93.12435 36152 ft 482 kts 219°
2026-05-06 05:37 65.39567 -93.22741 36149 ft 482 kts 219°
2026-05-06 05:37 65.34396 -93.33014 36150 ft 482 kts 219°
2026-05-06 05:38 65.29211 -93.43259 36157 ft 483 kts 219°
2026-05-06 05:38 65.24016 -93.53476 36151 ft 484 kts 219°
2026-05-06 05:39 65.18803 -93.63673 36144 ft 484 kts 219°
2026-05-06 05:39 65.13615 -93.73767 36153 ft 484 kts 219°
2026-05-06 05:40 65.08390 -93.83881 36146 ft 484 kts 219°
2026-05-06 05:40 65.03153 -93.93963 36138 ft 484 kts 219°
2026-05-06 05:41 64.97869 -94.03853 36146 ft 484 kts 217°
2026-05-06 05:41 64.92419 -94.13216 36147 ft 485 kts 216°
2026-05-06 05:42 64.86916 -94.22459 36143 ft 486 kts 216°
2026-05-06 05:42 64.81414 -94.31718 36145 ft 487 kts 216°
2026-05-06 05:43 64.75943 -94.40933 36150 ft 486 kts 216°
2026-05-06 05:43 64.70433 -94.50184 36152 ft 487 kts 216°
2026-05-06 05:44 64.64918 -94.59396 36149 ft 487 kts 216°
2026-05-06 05:44 64.59439 -94.68500 36154 ft 487 kts 216°
2026-05-06 05:45 64.53918 -94.77625 36148 ft 487 kts 215°
2026-05-06 05:45 64.48386 -94.86720 36152 ft 487 kts 216°
2026-05-06 05:46 64.42842 -94.95793 36151 ft 489 kts 215°
2026-05-06 05:46 64.37279 -95.04851 36154 ft 489 kts 216°
2026-05-06 05:47 64.31707 -95.13876 36160 ft 489 kts 216°
2026-05-06 05:47 64.26137 -95.22854 36155 ft 489 kts 215°
2026-05-06 05:48 64.20588 -95.31751 36159 ft 489 kts 215°
2026-05-06 05:48 64.15002 -95.40665 36163 ft 489 kts 215°
2026-05-06 05:49 64.09406 -95.49549 36159 ft 489 kts 215°
2026-05-06 05:49 64.03799 -95.58406 36153 ft 491 kts 216°
2026-05-06 05:50 63.98172 -95.67250 36182 ft 491 kts 215°
2026-05-06 05:50 63.92549 -95.76041 36166 ft 490 kts 215°
2026-05-06 05:51 63.86910 -95.84819 36182 ft 491 kts 215°
2026-05-06 05:51 63.81304 -95.93504 36170 ft 491 kts 215°
2026-05-06 05:52 63.75645 -96.02224 36175 ft 491 kts 215°
2026-05-06 05:52 63.69986 -96.10905 36173 ft 491 kts 214°
2026-05-06 05:53 63.64325 -96.19540 36181 ft 491 kts 214°
2026-05-06 05:53 63.58692 -96.28093 36169 ft 492 kts 215°
2026-05-06 05:54 63.53012 -96.36678 36184 ft 493 kts 214°
2026-05-06 05:54 63.47308 -96.45253 36184 ft 493 kts 214°
2026-05-06 05:55 63.41595 -96.53799 36166 ft 493 kts 215°
2026-05-06 05:55 63.35887 -96.62304 36186 ft 493 kts 214°
2026-05-06 05:56 63.30181 -96.70762 36191 ft 492 kts 214°
2026-05-06 05:56 63.24506 -96.79125 36191 ft 493 kts 214°
2026-05-06 05:57 63.18777 -96.87534 36172 ft 494 kts 214°
2026-05-06 05:57 63.13034 -96.95923 36198 ft 494 kts 214°
2026-05-06 05:58 63.07292 -97.04271 36193 ft 494 kts 214°
2026-05-06 05:58 63.01553 -97.12578 36193 ft 494 kts 214°
2026-05-06 05:59 62.96773 -97.19464 36195 ft 494 kts 214°
2026-05-06 05:59 62.90079 -97.29059 36176 ft 494 kts 214°
2026-05-06 06:00 62.84310 -97.37288 36178 ft 494 kts 214°
2026-05-06 06:00 62.79478 -97.44151 36180 ft 494 kts 214°
2026-05-06 06:01 62.73716 -97.52296 36189 ft 493 kts 214°
2026-05-06 06:01 62.67978 -97.60368 36188 ft 494 kts 214°
2026-05-06 06:02 62.62189 -97.68476 36186 ft 495 kts 214°
2026-05-06 06:02 62.56390 -97.76560 36197 ft 495 kts 213°
2026-05-06 06:03 62.50575 -97.84625 36194 ft 495 kts 214°
2026-05-06 06:03 62.44814 -97.92581 36194 ft 495 kts 213°
2026-05-06 06:04 62.39006 -98.00564 36204 ft 495 kts 214°
2026-05-06 06:04 62.33189 -98.08524 36205 ft 495 kts 213°
2026-05-06 06:05 62.27369 -98.16446 36203 ft 495 kts 213°
2026-05-06 06:05 62.21545 -98.24340 36210 ft 495 kts 213°
2026-05-06 06:06 62.15718 -98.32205 36211 ft 495 kts 213°
2026-05-06 06:06 62.09888 -98.40036 36222 ft 495 kts 213°
2026-05-06 06:07 62.04046 -98.47845 36218 ft 495 kts 213°
2026-05-06 06:07 61.98192 -98.55633 36216 ft 495 kts 213°
2026-05-06 06:08 61.92385 -98.63326 36213 ft 495 kts 213°
2026-05-06 06:08 61.86533 -98.71043 36219 ft 495 kts 213°
2026-05-06 06:09 61.80675 -98.78732 36219 ft 495 kts 213°
2026-05-06 06:09 61.74798 -98.86410 36222 ft 495 kts 213°
2026-05-06 06:10 61.68926 -98.94047 36221 ft 496 kts 212°
2026-05-06 06:10 61.63054 -99.01649 36224 ft 495 kts 213°
2026-05-06 06:11 61.57211 -99.09183 36222 ft 495 kts 212°
2026-05-06 06:11 61.51332 -99.16728 36223 ft 496 kts 212°
2026-05-06 06:12 61.45442 -99.24251 36221 ft 496 kts 213°
2026-05-06 06:12 61.39554 -99.31740 36232 ft 495 kts 213°
2026-05-06 06:13 61.33661 -99.39202 36228 ft 495 kts 212°
2026-05-06 06:13 61.27764 -99.46636 36227 ft 495 kts 213°
2026-05-06 06:14 61.21870 -99.54034 36232 ft 495 kts 212°
2026-05-06 06:14 61.15963 -99.61414 36233 ft 495 kts 212°
2026-05-06 06:15 61.10090 -99.68718 36228 ft 495 kts 212°
2026-05-06 06:15 61.04180 -99.76036 36238 ft 495 kts 212°
2026-05-06 06:16 60.98265 -99.83331 36243 ft 495 kts 212°
2026-05-06 06:16 60.92351 -99.90592 36236 ft 495 kts 212°
2026-05-06 06:17 60.86425 -99.97834 36246 ft 496 kts 212°
2026-05-06 06:17 60.80481 -100.05066 36240 ft 497 kts 212°
2026-05-06 06:18 60.74524 -100.12285 36241 ft 497 kts 212°
2026-05-06 06:18 60.68600 -100.19432 36244 ft 497 kts 212°
2026-05-06 06:19 60.62643 -100.26587 36240 ft 497 kts 212°
2026-05-06 06:19 60.56678 -100.33721 36238 ft 497 kts 212°
2026-05-06 06:20 60.50704 -100.40834 36249 ft 497 kts 212°
2026-05-06 06:20 60.44731 -100.47917 36244 ft 497 kts 212°
2026-05-06 06:21 60.38750 -100.54977 36252 ft 497 kts 212°
2026-05-06 06:21 60.32765 -100.62012 36252 ft 497 kts 211°
2026-05-06 06:22 60.26820 -100.68972 36241 ft 497 kts 211°
2026-05-06 06:22 60.20827 -100.75957 36239 ft 497 kts 211°
2026-05-06 06:23 60.14842 -100.82903 36243 ft 497 kts 211°
2026-05-06 06:23 60.08851 -100.89826 36244 ft 497 kts 211°
2026-05-06 06:24 60.02858 -100.96723 36244 ft 497 kts 211°
2026-05-06 06:24 59.96772 -101.03283 36245 ft 497 kts 207°
2026-05-06 06:25 59.90491 -101.09080 36233 ft 498 kts 205°
2026-05-06 06:26 59.81015 -101.17594 36230 ft 498 kts 206°
2026-05-06 06:26 59.74759 -101.23293 36228 ft 498 kts 206°
2026-05-06 06:27 59.68457 -101.29052 36235 ft 498 kts 206°
2026-05-06 06:27 59.62164 -101.34784 36237 ft 498 kts 206°
2026-05-06 06:28 59.55864 -101.40496 36232 ft 498 kts 206°
2026-05-06 06:28 59.49554 -101.46190 36235 ft 498 kts 206°
2026-05-06 06:29 59.43250 -101.51855 36234 ft 498 kts 206°
2026-05-06 06:29 59.36985 -101.57462 36238 ft 498 kts 205°
2026-05-06 06:30 59.30666 -101.63094 36235 ft 498 kts 205°
2026-05-06 06:30 59.24345 -101.68704 36243 ft 499 kts 206°
2026-05-06 06:31 59.18022 -101.74294 36234 ft 499 kts 205°
2026-05-06 06:31 59.11697 -101.79862 36235 ft 499 kts 205°
2026-05-06 06:32 59.05405 -101.85381 36234 ft 499 kts 205°
2026-05-06 06:32 58.99068 -101.90914 36248 ft 499 kts 205°
2026-05-06 06:33 58.92733 -101.96424 36242 ft 499 kts 205°
2026-05-06 06:33 58.86391 -102.01917 36235 ft 499 kts 205°
2026-05-06 06:34 58.80093 -102.07353 36252 ft 499 kts 205°
2026-05-06 06:34 58.73744 -102.12808 36241 ft 499 kts 205°
2026-05-06 06:35 58.67396 -102.18241 36237 ft 499 kts 205°
2026-05-06 06:35 58.61043 -102.23658 36240 ft 499 kts 205°
2026-05-06 06:36 58.54692 -102.29050 36235 ft 499 kts 205°
2026-05-06 06:36 58.48383 -102.34386 36232 ft 499 kts 205°
2026-05-06 06:37 58.42029 -102.39738 36227 ft 499 kts 205°
2026-05-06 06:37 58.35665 -102.45079 36228 ft 499 kts 205°
2026-05-06 06:38 58.29300 -102.50397 36241 ft 499 kts 205°
2026-05-06 06:38 58.22933 -102.55697 36243 ft 500 kts 205°
2026-05-06 06:39 58.16598 -102.60953 36233 ft 500 kts 205°
2026-05-06 06:39 58.10213 -102.66226 36240 ft 500 kts 205°
2026-05-06 06:40 58.03829 -102.71477 36234 ft 500 kts 205°
2026-05-06 06:40 57.97449 -102.76706 36234 ft 500 kts 205°
2026-05-06 06:41 57.91066 -102.81917 36234 ft 500 kts 204°
2026-05-06 06:41 57.84676 -102.87113 36218 ft 500 kts 205°
2026-05-06 06:42 57.78325 -102.92258 36229 ft 500 kts 204°
2026-05-06 06:42 57.71930 -102.97418 36234 ft 500 kts 204°
2026-05-06 06:43 57.65530 -103.02562 36233 ft 500 kts 204°
2026-05-06 06:43 57.59129 -103.07687 36227 ft 500 kts 204°
2026-05-06 06:44 57.52760 -103.12768 36235 ft 500 kts 204°
2026-05-06 06:44 57.46356 -103.17856 36236 ft 500 kts 204°
2026-05-06 06:45 57.39947 -103.22929 36228 ft 500 kts 204°
2026-05-06 06:45 57.33542 -103.27981 36222 ft 500 kts 204°
2026-05-06 06:46 57.27129 -103.33019 36222 ft 501 kts 204°
2026-05-06 06:46 57.20737 -103.38020 36229 ft 501 kts 204°
2026-05-06 06:47 57.14320 -103.43024 36221 ft 501 kts 204°
2026-05-06 06:47 57.07901 -103.48010 36216 ft 500 kts 204°
2026-05-06 06:48 57.01478 -103.52980 36213 ft 500 kts 204°
2026-05-06 06:48 56.95057 -103.57930 36217 ft 501 kts 204°
2026-05-06 06:49 56.89714 -103.62034 36206 ft 501 kts 204°
2026-05-06 06:49 56.83284 -103.66957 36214 ft 501 kts 204°
2026-05-06 06:50 56.76846 -103.71868 36216 ft 502 kts 204°
2026-05-06 06:50 56.70402 -103.76765 36214 ft 502 kts 204°
2026-05-06 06:51 56.63989 -103.81620 36213 ft 502 kts 204°
2026-05-06 06:51 56.57537 -103.86487 36211 ft 502 kts 204°
2026-05-06 06:52 56.51087 -103.91334 36211 ft 501 kts 204°
2026-05-06 06:52 56.44636 -103.96163 36189 ft 501 kts 204°
2026-05-06 06:53 56.38177 -104.00981 36212 ft 503 kts 204°
2026-05-06 06:53 56.31709 -104.05789 36213 ft 503 kts 204°
2026-05-06 06:54 56.25235 -104.10584 36217 ft 503 kts 203°
2026-05-06 06:54 56.18756 -104.15364 36217 ft 503 kts 203°
2026-05-06 06:55 56.12325 -104.20092 36213 ft 503 kts 203°
2026-05-06 06:55 56.05835 -104.24844 36213 ft 503 kts 203°
2026-05-06 06:56 55.99356 -104.29573 36223 ft 503 kts 203°
2026-05-06 06:56 55.92873 -104.34283 36217 ft 504 kts 203°
2026-05-06 06:57 55.86367 -104.38999 36214 ft 505 kts 203°
2026-05-06 06:57 55.79890 -104.43677 36214 ft 505 kts 203°
2026-05-06 06:58 55.73372 -104.48365 36211 ft 505 kts 203°
2026-05-06 06:58 55.66856 -104.53036 36217 ft 505 kts 203°
2026-05-06 06:59 55.60348 -104.57682 36216 ft 504 kts 203°
2026-05-06 06:59 55.53839 -104.62314 36208 ft 504 kts 203°
2026-05-06 07:00 55.47318 -104.66934 36215 ft 505 kts 203°
2026-05-06 07:00 55.40829 -104.71521 36218 ft 506 kts 203°
2026-05-06 07:01 55.34289 -104.76126 36219 ft 505 kts 203°
2026-05-06 07:01 55.27762 -104.80705 36219 ft 505 kts 203°
2026-05-06 07:02 55.21225 -104.85274 36217 ft 505 kts 203°
2026-05-06 07:02 55.14690 -104.89826 36225 ft 505 kts 203°
2026-05-06 07:03 55.08147 -104.94367 36195 ft 505 kts 203°
2026-05-06 07:03 55.01642 -104.98864 36220 ft 507 kts 203°
2026-05-06 07:04 54.95034 -105.03263 36205 ft 508 kts 201°
2026-05-06 07:04 54.88384 -105.07489 36208 ft 509 kts 201°
2026-05-06 07:05 54.81732 -105.11689 36213 ft 508 kts 201°
2026-05-06 07:05 54.75089 -105.15892 36208 ft 508 kts 201°
2026-05-06 07:06 54.68446 -105.20093 36206 ft 508 kts 201°
2026-05-06 07:06 54.61801 -105.24285 36178 ft 508 kts 201°
2026-05-06 07:07 54.55149 -105.28463 36224 ft 510 kts 201°
2026-05-06 07:07 54.48515 -105.32619 36203 ft 510 kts 201°
2026-05-06 07:08 54.41835 -105.36788 36199 ft 510 kts 201°
2026-05-06 07:08 54.35156 -105.40940 36200 ft 510 kts 201°
2026-05-06 07:09 54.28479 -105.45078 36202 ft 510 kts 201°
2026-05-06 07:09 54.21791 -105.49208 36200 ft 510 kts 201°
2026-05-06 07:10 54.15113 -105.53317 36197 ft 510 kts 201°
2026-05-06 07:10 54.08433 -105.57414 36194 ft 510 kts 201°
2026-05-06 07:11 54.01797 -105.61470 36192 ft 510 kts 201°
2026-05-06 07:11 53.95110 -105.65543 36196 ft 510 kts 201°
2026-05-06 07:12 53.88421 -105.69603 36188 ft 510 kts 201°
2026-05-06 07:12 53.81735 -105.73649 36187 ft 510 kts 201°
2026-05-06 07:13 53.75047 -105.77682 36185 ft 510 kts 201°
2026-05-06 07:13 53.68366 -105.81697 36192 ft 510 kts 201°
2026-05-06 07:14 53.61701 -105.85688 36190 ft 512 kts 201°
2026-05-06 07:14 53.54984 -105.89696 36187 ft 512 kts 200°
2026-05-06 07:15 53.48260 -105.93696 36189 ft 512 kts 200°
2026-05-06 07:15 53.41536 -105.97682 36192 ft 512 kts 200°
2026-05-06 07:16 53.34822 -106.01649 36184 ft 512 kts 200°
2026-05-06 07:16 53.28091 -106.05613 36189 ft 512 kts 200°
2026-05-06 07:17 53.21413 -106.09531 36182 ft 513 kts 200°
2026-05-06 07:17 53.14660 -106.13482 36195 ft 515 kts 200°
2026-05-06 07:18 53.07888 -106.17431 36187 ft 514 kts 200°
2026-05-06 07:18 53.01131 -106.21358 36186 ft 514 kts 200°
2026-05-06 07:19 52.94371 -106.25273 36187 ft 514 kts 200°
2026-05-06 07:19 52.87608 -106.29176 36189 ft 514 kts 200°
2026-05-06 07:20 52.80885 -106.33045 36161 ft 514 kts 200°
2026-05-06 07:20 52.74119 -106.36921 36186 ft 516 kts 200°
2026-05-06 07:21 52.67331 -106.40802 36191 ft 517 kts 200°
2026-05-06 07:21 52.60535 -106.44676 36190 ft 517 kts 200°
2026-05-06 07:22 52.53742 -106.48533 36189 ft 516 kts 200°
2026-05-06 07:22 52.46948 -106.52378 36181 ft 516 kts 200°
2026-05-06 07:23 52.40161 -106.56206 36168 ft 516 kts 200°
2026-05-06 07:23 52.33406 -106.60002 36146 ft 517 kts 200°
2026-05-06 07:24 52.26583 -106.63826 36138 ft 519 kts 200°
2026-05-06 07:24 52.19729 -106.67657 36141 ft 520 kts 200°
2026-05-06 07:25 52.12880 -106.71471 36138 ft 519 kts 200°
2026-05-06 07:25 52.06080 -106.75245 36140 ft 519 kts 200°
2026-05-06 07:26 51.99243 -106.79027 36191 ft 519 kts 200°
2026-05-06 07:26 51.92406 -106.82797 36164 ft 519 kts 200°
2026-05-06 07:27 51.85557 -106.86560 36199 ft 521 kts 200°
2026-05-06 07:27 51.78678 -106.90330 36187 ft 522 kts 200°
2026-05-06 07:28 51.71801 -106.94086 36192 ft 521 kts 200°
2026-05-06 07:28 51.61538 -106.99668 36194 ft 520 kts 200°
2026-05-06 07:29 51.54666 -107.03392 36190 ft 520 kts 200°
2026-05-06 07:29 51.47793 -107.07102 36181 ft 520 kts 200°
2026-05-06 07:30 51.40909 -107.10806 36198 ft 522 kts 200°
2026-05-06 07:30 51.34017 -107.14507 36197 ft 522 kts 200°
2026-05-06 07:31 51.27169 -107.18170 36192 ft 522 kts 200°
2026-05-06 07:31 51.20270 -107.21849 36197 ft 522 kts 200°
2026-05-06 07:32 51.13377 -107.25513 36197 ft 521 kts 200°
2026-05-06 07:32 51.06492 -107.29161 36174 ft 521 kts 200°
2026-05-06 07:33 50.99591 -107.32805 36197 ft 523 kts 200°
2026-05-06 07:33 50.92681 -107.36444 36197 ft 523 kts 200°
2026-05-06 07:34 50.85808 -107.40052 36198 ft 523 kts 200°
2026-05-06 07:34 50.78894 -107.43671 36198 ft 523 kts 200°
2026-05-06 07:35 50.71972 -107.47282 36205 ft 523 kts 200°
2026-05-06 07:35 50.65059 -107.50876 36169 ft 522 kts 200°
2026-05-06 07:36 50.58182 -107.54440 36183 ft 524 kts 200°
2026-05-06 07:36 50.51246 -107.58026 36158 ft 524 kts 200°
2026-05-06 07:37 50.44306 -107.61603 36141 ft 524 kts 200°
2026-05-06 07:37 50.38543 -107.64563 36118 ft 523 kts 200°
2026-05-06 07:38 50.31626 -107.68107 36118 ft 523 kts 200°
2026-05-06 07:38 50.24790 -107.71985 36118 ft 522 kts 204°
2026-05-06 07:39 50.18058 -107.76295 36130 ft 523 kts 205°
2026-05-06 07:39 50.11374 -107.80605 36152 ft 523 kts 205°
2026-05-06 07:40 50.04634 -107.84875 36195 ft 523 kts 204°
2026-05-06 07:40 49.97886 -107.89099 36198 ft 523 kts 204°
2026-05-06 07:41 49.91136 -107.93301 36203 ft 522 kts 204°
2026-05-06 07:41 49.84378 -107.97496 36208 ft 521 kts 204°
2026-05-06 07:42 49.77669 -108.01651 36202 ft 521 kts 204°
2026-05-06 07:42 49.70929 -108.05814 36208 ft 521 kts 204°
2026-05-06 07:43 49.64188 -108.09965 36198 ft 521 kts 204°
2026-05-06 07:43 49.57444 -108.14105 36201 ft 521 kts 204°
2026-05-06 07:44 49.50701 -108.18232 36189 ft 521 kts 204°
2026-05-06 07:44 49.43977 -108.22337 36202 ft 524 kts 204°
2026-05-06 07:45 49.37189 -108.26467 36198 ft 524 kts 204°
2026-05-06 07:45 49.30423 -108.30571 36197 ft 523 kts 204°
2026-05-06 07:46 49.23651 -108.34666 36196 ft 523 kts 204°
2026-05-06 07:46 49.16885 -108.38746 36204 ft 523 kts 204°
2026-05-06 07:47 49.10127 -108.42808 36184 ft 522 kts 204°
2026-05-06 07:47 49.03349 -108.46872 36189 ft 525 kts 204°
2026-05-06 07:48 48.96538 -108.50945 36189 ft 525 kts 204°
2026-05-06 07:48 48.89774 -108.54977 36190 ft 525 kts 204°
2026-05-06 07:49 48.82986 -108.59010 36186 ft 523 kts 204°
2026-05-06 07:49 48.76213 -108.63023 36151 ft 522 kts 204°
2026-05-06 07:50 48.69410 -108.67041 36175 ft 527 kts 204°
2026-05-06 07:50 48.62561 -108.71079 36179 ft 528 kts 204°
2026-05-06 07:51 48.55714 -108.75101 36174 ft 526 kts 204°
2026-05-06 07:51 48.48887 -108.79099 36169 ft 526 kts 204°
2026-05-06 07:52 48.42052 -108.83090 36159 ft 526 kts 204°
2026-05-06 07:52 48.35258 -108.87045 36155 ft 528 kts 204°
2026-05-06 07:53 48.28388 -108.91035 36154 ft 530 kts 204°
2026-05-06 07:53 48.21503 -108.95023 36153 ft 530 kts 204°
2026-05-06 07:54 48.14614 -108.98999 36157 ft 530 kts 204°
2026-05-06 07:54 48.07755 -109.02945 36147 ft 526 kts 204°
2026-05-06 07:55 48.00918 -109.06868 36145 ft 528 kts 204°
2026-05-06 07:55 47.94075 -109.10788 36151 ft 531 kts 204°
2026-05-06 07:56 47.87163 -109.14733 36153 ft 530 kts 204°
2026-05-06 07:56 47.80266 -109.18658 36140 ft 528 kts 204°
2026-05-06 07:57 47.73395 -109.22556 36144 ft 528 kts 204°
2026-05-06 07:57 47.66558 -109.26425 36142 ft 530 kts 204°
2026-05-06 07:58 47.59639 -109.30331 36145 ft 533 kts 204°
2026-05-06 07:58 47.52690 -109.34240 36145 ft 533 kts 204°
2026-05-06 07:59 47.45752 -109.38133 36144 ft 533 kts 204°
2026-05-06 07:59 47.38814 -109.42015 36145 ft 532 kts 204°
2026-05-06 08:00 47.31884 -109.45879 36141 ft 532 kts 204°
2026-05-06 08:00 47.24980 -109.49722 36147 ft 535 kts 204°
2026-05-06 08:01 47.18001 -109.53595 36141 ft 536 kts 204°
2026-05-06 08:01 47.11011 -109.57464 36143 ft 536 kts 204°
2026-05-06 08:02 47.04014 -109.61252 36146 ft 537 kts 202°
2026-05-06 08:02 46.96895 -109.64417 36120 ft 540 kts 199°
2026-05-06 08:03 46.89617 -109.67397 36135 ft 543 kts 199°
2026-05-06 08:03 46.82356 -109.70400 36125 ft 541 kts 199°
2026-05-06 08:04 46.75110 -109.73446 36122 ft 541 kts 199°
2026-05-06 08:04 46.67884 -109.76499 36126 ft 540 kts 200°
2026-05-06 08:05 46.60674 -109.79538 36068 ft 539 kts 200°
2026-05-06 08:05 46.53485 -109.82561 36116 ft 543 kts 200°
2026-05-06 08:06 46.46215 -109.85606 36123 ft 544 kts 200°
2026-05-06 08:06 46.38962 -109.88633 36117 ft 541 kts 200°
2026-05-06 08:07 46.31706 -109.91654 36121 ft 541 kts 200°
2026-05-06 08:07 46.24461 -109.94663 36132 ft 541 kts 200°
2026-05-06 08:08 46.17231 -109.97657 36109 ft 539 kts 200°
2026-05-06 08:08 46.10059 -110.00619 36116 ft 538 kts 200°
2026-05-06 08:09 46.02844 -110.03591 36130 ft 538 kts 200°
2026-05-06 08:09 45.95636 -110.06552 36119 ft 537 kts 199°
2026-05-06 08:10 45.88495 -110.09477 36111 ft 536 kts 199°
2026-05-06 08:10 45.81304 -110.12416 36131 ft 539 kts 200°
2026-05-06 08:11 45.74072 -110.15364 36129 ft 539 kts 200°
2026-05-06 08:11 45.66858 -110.18294 36135 ft 539 kts 200°
2026-05-06 08:12 45.59645 -110.21218 36137 ft 539 kts 200°
2026-05-06 08:12 45.52425 -110.24136 36132 ft 537 kts 200°
2026-05-06 08:13 45.45231 -110.27036 36131 ft 538 kts 200°
2026-05-06 08:13 45.38049 -110.29925 36123 ft 539 kts 200°
2026-05-06 08:14 45.30829 -110.32825 36124 ft 537 kts 200°
2026-05-06 08:14 45.23644 -110.35693 36097 ft 534 kts 199°
2026-05-06 08:15 45.16541 -110.38522 36091 ft 534 kts 200°
2026-05-06 08:15 45.09376 -110.41377 36067 ft 535 kts 199°
2026-05-06 08:16 45.02199 -110.44227 36055 ft 534 kts 200°
2026-05-06 08:16 44.95045 -110.47059 36066 ft 534 kts 200°
2026-05-06 08:17 44.87881 -110.49884 36051 ft 534 kts 199°
2026-05-06 08:17 44.80765 -110.52685 36019 ft 534 kts 199°
2026-05-06 08:18 44.73595 -110.55501 36003 ft 536 kts 199°
2026-05-06 08:18 44.66400 -110.58321 35982 ft 536 kts 199°
2026-05-06 08:19 44.59230 -110.61121 35973 ft 534 kts 199°
2026-05-06 08:19 44.52115 -110.63894 35970 ft 533 kts 199°
2026-05-06 08:20 44.44964 -110.66675 35959 ft 533 kts 199°
2026-05-06 08:20 44.37815 -110.69447 35935 ft 533 kts 199°
2026-05-06 08:21 44.30646 -110.72220 35930 ft 534 kts 199°
2026-05-06 08:21 44.23488 -110.74981 35912 ft 534 kts 199°
2026-05-06 08:22 44.16325 -110.77737 35909 ft 533 kts 199°
2026-05-06 08:22 44.09175 -110.80483 35900 ft 533 kts 199°
2026-05-06 08:23 44.02400 -110.83077 35897 ft 533 kts 199°
2026-05-06 08:23 43.95273 -110.85799 35931 ft 530 kts 199°
2026-05-06 08:24 43.91709 -110.87158 36156 ft 531 kts 199°
2026-05-06 08:24 43.88150 -110.88512 36540 ft 529 kts 199°
2026-05-06 08:24 43.84609 -110.89858 37002 ft 526 kts 199°
2026-05-06 08:24 43.81090 -110.91190 37462 ft 522 kts 199°
2026-05-06 08:25 43.77598 -110.92510 38028 ft 517 kts 199°
2026-05-06 08:25 43.74197 -110.93797 38558 ft 510 kts 199°
2026-05-06 08:25 43.70779 -110.95090 38807 ft 510 kts 199°
2026-05-06 08:25 43.67348 -110.96392 38867 ft 513 kts 199°
2026-05-06 08:26 43.60447 -110.99005 38869 ft 513 kts 199°
2026-05-06 08:26 43.53566 -111.01598 38859 ft 512 kts 199°
2026-05-06 08:27 43.46691 -111.04178 38853 ft 511 kts 199°
2026-05-06 08:27 43.40977 -111.06321 38857 ft 512 kts 199°
2026-05-06 08:28 43.34098 -111.08890 38869 ft 514 kts 199°
2026-05-06 08:28 43.27191 -111.11469 38851 ft 513 kts 198°
2026-05-06 08:29 43.20300 -111.14034 38853 ft 513 kts 198°
2026-05-06 08:29 43.13447 -111.16582 38844 ft 514 kts 199°
2026-05-06 08:30 43.06528 -111.19147 38811 ft 515 kts 198°
2026-05-06 08:30 42.99630 -111.21692 38850 ft 516 kts 198°
2026-05-06 08:31 42.92696 -111.24246 38833 ft 516 kts 198°
2026-05-06 08:31 42.85758 -111.26799 38831 ft 516 kts 198°
2026-05-06 08:32 42.78871 -111.29329 38831 ft 516 kts 198°
2026-05-06 08:32 42.71934 -111.31867 38821 ft 516 kts 198°
2026-05-06 08:33 42.64998 -111.34399 38831 ft 516 kts 198°
2026-05-06 08:33 42.58053 -111.36932 38815 ft 515 kts 198°
2026-05-06 08:34 42.47724 -111.40710 38812 ft 510 kts 198°
2026-05-06 08:35 42.40897 -111.43175 38816 ft 510 kts 198°
2026-05-06 08:35 42.34029 -111.45650 38803 ft 509 kts 197°
2026-05-06 08:36 42.27218 -111.48103 38809 ft 506 kts 197°
2026-05-06 08:36 42.20412 -111.50552 38811 ft 505 kts 197°
2026-05-06 08:37 42.13616 -111.52993 38804 ft 505 kts 197°
2026-05-06 08:37 42.06828 -111.55427 38821 ft 503 kts 197°
2026-05-06 08:38 42.00066 -111.57845 38845 ft 503 kts 197°
2026-05-06 08:38 41.93339 -111.60246 38865 ft 503 kts 197°
2026-05-06 08:39 41.86583 -111.62652 38896 ft 501 kts 197°
2026-05-06 08:39 41.79842 -111.65046 38906 ft 501 kts 197°
2026-05-06 08:40 41.73097 -111.67446 38902 ft 501 kts 197°
2026-05-06 08:40 41.66416 -111.69806 38902 ft 498 kts 197°
2026-05-06 08:41 41.59718 -111.72162 38892 ft 497 kts 197°
2026-05-06 08:41 41.53025 -111.74516 38882 ft 497 kts 197°
2026-05-06 08:42 41.46336 -111.76866 38869 ft 497 kts 197°
2026-05-06 08:42 41.39658 -111.79212 38887 ft 496 kts 197°
2026-05-06 08:43 41.32987 -111.81551 38903 ft 496 kts 196°
2026-05-06 08:43 41.26303 -111.83888 38877 ft 496 kts 195°
2026-05-06 08:44 41.19646 -111.86208 38922 ft 494 kts 196°
2026-05-06 08:44 41.13020 -111.88512 38929 ft 494 kts 196°
2026-05-06 08:45 41.06363 -111.90823 38934 ft 494 kts 196°
2026-05-06 08:45 40.99756 -111.93112 38920 ft 492 kts 196°
2026-05-06 08:46 40.93090 -111.95418 38846 ft 500 kts 196°
2026-05-06 08:46 40.86339 -111.97748 38841 ft 504 kts 196°
2026-05-06 08:47 40.79548 -112.00093 38843 ft 504 kts 196°
2026-05-06 08:47 40.72765 -112.02436 38943 ft 504 kts 196°
2026-05-06 08:48 40.65974 -112.04778 38952 ft 504 kts 196°
2026-05-06 08:48 40.59185 -112.07114 38951 ft 504 kts 196°
2026-05-06 08:49 40.52444 -112.09427 38941 ft 504 kts 196°
2026-05-06 08:49 40.45640 -112.11758 38909 ft 504 kts 196°
2026-05-06 08:50 40.38880 -112.14066 38872 ft 506 kts 195°
2026-05-06 08:50 40.32042 -112.16398 38839 ft 508 kts 195°
2026-05-06 08:51 40.25190 -112.18731 38836 ft 508 kts 195°
2026-05-06 08:51 40.18337 -112.21058 38829 ft 508 kts 195°
2026-05-06 08:52 40.11503 -112.23374 38825 ft 509 kts 195°
2026-05-06 08:52 40.04631 -112.25698 38824 ft 509 kts 195°
2026-05-06 08:53 39.97770 -112.28013 38828 ft 509 kts 195°
2026-05-06 08:53 39.90941 -112.30313 38825 ft 508 kts 195°
2026-05-06 08:54 39.84079 -112.32619 38824 ft 508 kts 195°
2026-05-06 08:54 39.77226 -112.34917 38818 ft 509 kts 195°
2026-05-06 08:55 39.70403 -112.37200 38818 ft 507 kts 195°
2026-05-06 08:55 39.63567 -112.39484 38820 ft 506 kts 195°
2026-05-06 08:56 39.56773 -112.41748 38817 ft 506 kts 195°
2026-05-06 08:56 39.49957 -112.44017 38815 ft 504 kts 194°
2026-05-06 08:57 39.43167 -112.46270 38797 ft 502 kts 194°
2026-05-06 08:57 39.36401 -112.48511 38803 ft 504 kts 194°
2026-05-06 08:58 39.29714 -112.51246 38806 ft 503 kts 206°
2026-05-06 08:58 39.23544 -112.55472 38803 ft 501 kts 210°
2026-05-06 08:59 39.17514 -112.59990 38787 ft 501 kts 211°
2026-05-06 08:59 39.11511 -112.64541 38782 ft 500 kts 211°
2026-05-06 09:00 39.05492 -112.69064 38785 ft 500 kts 210°
2026-05-06 09:00 38.99506 -112.73528 38769 ft 499 kts 211°
2026-05-06 09:01 38.93490 -112.77998 38775 ft 499 kts 211°
2026-05-06 09:01 38.87458 -112.82470 38769 ft 500 kts 210°
2026-05-06 09:02 38.81408 -112.86948 38765 ft 501 kts 210°
2026-05-06 09:02 38.75414 -112.91376 38768 ft 499 kts 210°
2026-05-06 09:03 38.69377 -112.95828 38764 ft 499 kts 210°
2026-05-06 09:03 38.63346 -113.00267 38822 ft 499 kts 210°
2026-05-06 09:04 38.57358 -113.04666 38841 ft 499 kts 210°
2026-05-06 09:04 38.51348 -113.09071 38864 ft 495 kts 210°
2026-05-06 09:05 38.45371 -113.13444 38864 ft 495 kts 210°
2026-05-06 09:05 38.39416 -113.17793 38851 ft 496 kts 210°
2026-05-06 09:06 38.33412 -113.22170 38832 ft 496 kts 210°
2026-05-06 09:06 38.27404 -113.26540 38805 ft 497 kts 210°
2026-05-06 09:07 38.21436 -113.30872 38778 ft 497 kts 210°
2026-05-06 09:07 38.15414 -113.35235 38762 ft 496 kts 210°
2026-05-06 09:08 38.09402 -113.39582 38770 ft 496 kts 210°
2026-05-06 09:08 38.03430 -113.43892 38773 ft 495 kts 210°
2026-05-06 09:09 37.97442 -113.48205 38767 ft 494 kts 210°
2026-05-06 09:09 37.91448 -113.52515 38777 ft 495 kts 210°
2026-05-06 09:10 37.85457 -113.56813 38788 ft 495 kts 210°
2026-05-06 09:10 37.79493 -113.61085 38792 ft 494 kts 210°
2026-05-06 09:11 37.73531 -113.65347 38799 ft 491 kts 210°
2026-05-06 09:11 37.67586 -113.69589 38800 ft 489 kts 210°
2026-05-06 09:12 37.61662 -113.73808 38805 ft 489 kts 210°
2026-05-06 09:12 37.55757 -113.78006 38811 ft 491 kts 210°
2026-05-06 09:13 37.49794 -113.82237 38819 ft 490 kts 210°
2026-05-06 09:13 37.43855 -113.86444 38816 ft 488 kts 210°
2026-05-06 09:14 37.37974 -113.90602 38823 ft 488 kts 209°
2026-05-06 09:14 37.32044 -113.94787 38817 ft 488 kts 210°
2026-05-06 09:15 37.27123 -113.98255 38820 ft 486 kts 210°
2026-05-06 09:15 37.21236 -114.02395 38811 ft 484 kts 210°
2026-05-06 09:16 37.14405 -114.07193 38818 ft 483 kts 210°
2026-05-06 09:16 37.09474 -114.10648 38811 ft 486 kts 210°
2026-05-06 09:17 37.03600 -114.14759 38807 ft 487 kts 209°
2026-05-06 09:17 36.97707 -114.18874 38804 ft 484 kts 210°
2026-05-06 09:18 36.91827 -114.22975 38805 ft 483 kts 210°
2026-05-06 09:18 36.85959 -114.27061 38803 ft 482 kts 210°
2026-05-06 09:19 36.80088 -114.31140 38802 ft 482 kts 210°
2026-05-06 09:19 36.74257 -114.35186 38802 ft 482 kts 210°
2026-05-06 09:20 36.68399 -114.39242 38797 ft 481 kts 210°
2026-05-06 09:20 36.62522 -114.43302 38794 ft 485 kts 210°
2026-05-06 09:21 36.56615 -114.47378 38792 ft 485 kts 210°
2026-05-06 09:21 36.50708 -114.51446 38789 ft 485 kts 210°
2026-05-06 09:22 36.44808 -114.55503 38788 ft 483 kts 210°
2026-05-06 09:22 36.38932 -114.59536 38782 ft 482 kts 210°
2026-05-06 09:23 36.33068 -114.63554 38787 ft 482 kts 210°
2026-05-06 09:23 36.27200 -114.67567 38795 ft 482 kts 210°
2026-05-06 09:24 36.21324 -114.71575 38805 ft 481 kts 210°
2026-05-06 09:24 36.15477 -114.75562 38823 ft 479 kts 210°
2026-05-06 09:25 36.09632 -114.79540 38850 ft 479 kts 210°
2026-05-06 09:25 36.03829 -114.83483 38869 ft 479 kts 210°
2026-05-06 09:26 35.98458 -114.88268 38866 ft 477 kts 225°
2026-05-06 09:26 35.93940 -114.94251 38864 ft 476 kts 229°
2026-05-06 09:27 35.89623 -115.00420 38867 ft 474 kts 230°
2026-05-06 09:27 35.85330 -115.06602 38888 ft 476 kts 230°
2026-05-06 09:28 35.80999 -115.12779 38887 ft 476 kts 229°
2026-05-06 09:28 35.76644 -115.18945 38902 ft 477 kts 229°
2026-05-06 09:29 35.72289 -115.25091 38905 ft 476 kts 229°
2026-05-06 09:29 35.67929 -115.31235 38915 ft 477 kts 229°
2026-05-06 09:30 35.63562 -115.37378 38911 ft 478 kts 229°
2026-05-06 09:30 35.59180 -115.43532 38919 ft 478 kts 229°
2026-05-06 09:31 35.54794 -115.49680 38917 ft 478 kts 229°
2026-05-06 09:31 35.50404 -115.55823 38917 ft 479 kts 229°
2026-05-06 09:32 35.46039 -115.61921 38917 ft 479 kts 229°
2026-05-06 09:32 35.41611 -115.68095 38911 ft 479 kts 229°
2026-05-06 09:33 35.37228 -115.74195 38914 ft 481 kts 229°
2026-05-06 09:33 35.32801 -115.80347 38903 ft 481 kts 229°
2026-05-06 09:34 35.28376 -115.86485 38896 ft 479 kts 229°
2026-05-06 09:34 35.23977 -115.92576 38886 ft 477 kts 229°
2026-05-06 09:35 35.19582 -115.98649 38887 ft 477 kts 229°
2026-05-06 09:35 35.15171 -116.04737 38875 ft 479 kts 229°
2026-05-06 09:36 35.10743 -116.10836 38873 ft 480 kts 229°
2026-05-06 09:36 35.06314 -116.16925 38867 ft 480 kts 229°
2026-05-06 09:37 35.01881 -116.23011 38849 ft 479 kts 229°
2026-05-06 09:37 34.99673 -116.26036 38515 ft 475 kts 229°
2026-05-06 09:37 34.97515 -116.28992 37635 ft 479 kts 229°
2026-05-06 09:37 34.95257 -116.32083 36708 ft 484 kts 229°
2026-05-06 09:38 34.93053 -116.35095 36043 ft 482 kts 230°
2026-05-06 09:38 34.90813 -116.38132 35350 ft 482 kts 227°
2026-05-06 09:38 34.88298 -116.40857 34504 ft 488 kts 218°
2026-05-06 09:38 34.85546 -116.43305 33602 ft 492 kts 217°
2026-05-06 09:39 34.82720 -116.45669 32988 ft 494 kts 215°
2026-05-06 09:39 34.79841 -116.47993 32725 ft 497 kts 214°
2026-05-06 09:39 34.76942 -116.50305 32474 ft 499 kts 214°
2026-05-06 09:39 34.74032 -116.52618 32225 ft 501 kts 214°
2026-05-06 09:40 34.71107 -116.54947 31898 ft 503 kts 214°
2026-05-06 09:40 34.68173 -116.57290 31009 ft 507 kts 214°
2026-05-06 09:40 34.62271 -116.62019 28722 ft 509 kts 214°
2026-05-06 09:41 34.59352 -116.64362 28151 ft 499 kts 214°
2026-05-06 09:41 34.56481 -116.66667 27565 ft 490 kts 214°
2026-05-06 09:41 34.53679 -116.68918 27008 ft 482 kts 214°
2026-05-06 09:41 34.50946 -116.71117 26472 ft 474 kts 214°
2026-05-06 09:42 34.48220 -116.73311 25944 ft 467 kts 214°
2026-05-06 09:42 34.45535 -116.75476 25447 ft 460 kts 214°
2026-05-06 09:42 34.42912 -116.77594 24984 ft 453 kts 214°
2026-05-06 09:42 34.40310 -116.79696 24507 ft 446 kts 214°
2026-05-06 09:43 34.37745 -116.81770 24065 ft 440 kts 214°
2026-05-06 09:43 34.35220 -116.83812 23623 ft 434 kts 214°
2026-05-06 09:43 34.32806 -116.85983 23099 ft 434 kts 221°
2026-05-06 09:43 34.30547 -116.88441 22619 ft 439 kts 223°
2026-05-06 09:44 34.28265 -116.90907 22126 ft 440 kts 222°
2026-05-06 09:44 34.25953 -116.93326 21647 ft 438 kts 222°
2026-05-06 09:44 34.23669 -116.95674 21178 ft 433 kts 223°
2026-05-06 09:44 34.21638 -116.98285 20721 ft 428 kts 236°
2026-05-06 09:45 34.20261 -117.01415 20278 ft 420 kts 250°
2026-05-06 09:45 34.19303 -117.04732 19822 ft 416 kts 254°
2026-05-06 09:45 34.18423 -117.08052 19362 ft 413 kts 255°
2026-05-06 09:45 34.17552 -117.11342 18726 ft 410 kts 255°
2026-05-06 09:46 34.16686 -117.14589 18164 ft 403 kts 255°
2026-05-06 09:46 34.15820 -117.17787 17570 ft 398 kts 253°
2026-05-06 09:46 34.14958 -117.20943 17109 ft 393 kts 253°
2026-05-06 09:46 34.14101 -117.24073 16956 ft 393 kts 253°
2026-05-06 09:47 34.13239 -117.27207 16898 ft 392 kts 253°
2026-05-06 09:47 34.12383 -117.30313 16298 ft 390 kts 253°
2026-05-06 09:47 34.11531 -117.33403 15620 ft 386 kts 253°
2026-05-06 09:47 34.10691 -117.36455 15041 ft 380 kts 253°
2026-05-06 09:48 34.09910 -117.39483 14432 ft 376 kts 254°
2026-05-06 09:48 34.09161 -117.42474 14062 ft 366 kts 254°
2026-05-06 09:48 34.08458 -117.45286 13761 ft 342 kts 255°
2026-05-06 09:48 34.07795 -117.47930 13458 ft 319 kts 256°
2026-05-06 09:49 34.07231 -117.50451 12928 ft 305 kts 258°
2026-05-06 09:49 34.06794 -117.52927 12248 ft 299 kts 260°
2026-05-06 09:49 34.06386 -117.55377 11701 ft 296 kts 261°
2026-05-06 09:49 34.05984 -117.57813 11101 ft 295 kts 262°
2026-05-06 09:50 34.05586 -117.60240 10517 ft 294 kts 261°
2026-05-06 09:50 34.05188 -117.62651 10006 ft 294 kts 261°
2026-05-06 09:50 34.04786 -117.65075 9519 ft 295 kts 261°
2026-05-06 09:50 34.04381 -117.67506 9020 ft 295 kts 262°
2026-05-06 09:51 34.03975 -117.69938 8532 ft 295 kts 262°
2026-05-06 09:51 34.03577 -117.72308 8250 ft 289 kts 261°
2026-05-06 09:51 34.03182 -117.74663 7955 ft 284 kts 261°
2026-05-06 09:51 34.02794 -117.76972 7695 ft 278 kts 260°
2026-05-06 09:52 34.02414 -117.79230 7442 ft 271 kts 261°
2026-05-06 09:52 34.02044 -117.81437 7197 ft 266 kts 259°
2026-05-06 09:52 34.01678 -117.83614 6949 ft 263 kts 259°
2026-05-06 09:52 34.01317 -117.85749 6699 ft 258 kts 259°
2026-05-06 09:53 34.00962 -117.87850 6449 ft 253 kts 259°
2026-05-06 09:53 34.00617 -117.89888 6189 ft 248 kts 259°
2026-05-06 09:53 34.00275 -117.91912 5942 ft 244 kts 259°
2026-05-06 09:53 33.99938 -117.93904 5683 ft 240 kts 259°
2026-05-06 09:54 33.99607 -117.95863 5434 ft 236 kts 258°
2026-05-06 09:54 33.99279 -117.97796 5180 ft 234 kts 258°
2026-05-06 09:54 33.98956 -117.99702 4934 ft 231 kts 257°
2026-05-06 09:54 33.98639 -118.01559 4710 ft 223 kts 258°
2026-05-06 09:55 33.98328 -118.03379 4445 ft 219 kts 257°
2026-05-06 09:55 33.98023 -118.05174 4200 ft 219 kts 257°
2026-05-06 09:55 33.97716 -118.06972 3937 ft 221 kts 258°
2026-05-06 09:55 33.97405 -118.08790 3737 ft 223 kts 257°
2026-05-06 09:56 33.97095 -118.10605 3699 ft 224 kts 258°
2026-05-06 09:56 33.96727 -118.12435 3709 ft 225 kts 256°
2026-05-06 09:56 33.96506 -118.14289 3677 ft 225 kts 275°
2026-05-06 09:56 33.96828 -118.16054 3672 ft 211 kts 283°
2026-05-06 09:57 33.97132 -118.17718 3676 ft 194 kts 278°
2026-05-06 09:57 33.97250 -118.19295 3590 ft 186 kts 269°
2026-05-06 09:57 33.97174 -118.20824 3372 ft 181 kts 264°
2026-05-06 09:57 33.97037 -118.22330 3090 ft 179 kts 262°
2026-05-06 09:58 33.96890 -118.23810 2804 ft 176 kts 261°
2026-05-06 09:58 33.96743 -118.25256 2556 ft 171 kts 261°
2026-05-06 09:58 33.96601 -118.26660 2343 ft 167 kts 261°
2026-05-06 09:58 33.96461 -118.28022 2121 ft 164 kts 262°
2026-05-06 09:59 33.96321 -118.29394 1910 ft 166 kts 261°
2026-05-06 09:59 33.96178 -118.30789 1680 ft 167 kts 262°
2026-05-06 09:59 33.96041 -118.32119 1458 ft 154 kts 261°
2026-05-06 09:59 33.95916 -118.33340 1249 ft 138 kts 262°
2026-05-06 10:00 33.95806 -118.34420 1076 ft 124 kts 261°
2026-05-06 10:00 33.95700 -118.35444 919 ft 122 kts 260°
2026-05-06 10:00 33.95597 -118.36445 747 ft 119 kts 259°
2026-05-06 10:00 33.95493 -118.37437 588 ft 120 kts 259°
2026-05-06 10:01 33.95388 -118.38428 408 ft 118 kts 260°
2026-05-06 10:01 33.95293 -118.39410 251 ft 117 kts 261°
2026-05-06 10:01 33.95194 -118.40377 118 ft 115 kts 262°
2026-05-06 10:01 33.95105 -118.41232 100 ft 82 kts 262°
2026-05-06 10:02 33.95056 -118.41691 98 ft 44 kts 263°
2026-05-06 10:02 33.95025 -118.41988 99 ft 28 kts 258°
2026-05-06 10:02 33.94953 -118.42175 101 ft 14 kts 229°
2026-05-06 10:02 33.94913 -118.42225 102 ft 12 kts 224°
2026-05-06 10:03 33.94812 -118.42285 101 ft 13 kts 181°
2026-05-06 10:03 33.94728 -118.42274 101 ft 12 kts 168°
2026-05-06 10:03 33.94690 -118.42229 101 ft 13 kts 108°
2026-05-06 10:03 33.94700 -118.42068 98 ft 16 kts 83°
2026-05-06 10:04 33.94709 -118.41973 97 ft 18 kts 83°
2026-05-06 10:04 33.94725 -118.41810 98 ft 21 kts 83°
2026-05-06 10:04 33.94743 -118.41637 97 ft 21 kts 82°
2026-05-06 10:04 33.94761 -118.41472 101 ft 16 kts 83°
2026-05-06 10:05 33.94782 -118.41357 98 ft 14 kts 83°
2026-05-06 10:05 33.94739 -118.41291 100 ft 12 kts 169°
2026-05-06 10:05 33.94644 -118.41276 98 ft 15 kts 173°
2026-05-06 10:05 33.94531 -118.41260 98 ft 17 kts 173°
2026-05-06 10:06 33.94405 -118.41241 97 ft 20 kts 172°
2026-05-06 10:06 33.94271 -118.41221 98 ft 18 kts 173°
2026-05-06 10:06 33.94143 -118.41202 99 ft 17 kts 173°
2026-05-06 10:06 33.94043 -118.41187 98 ft 12 kts 173°
2026-05-06 10:07 33.93970 -118.41176 99 ft 9 kts 173°
2026-05-06 10:07 33.93934 -118.41146 100 ft 5 kts 99°
2026-05-06 10:07 33.93940 -118.41093 100 ft 6 kts 83°
2026-05-06 10:07 33.93944 -118.41058 99 ft 2 kts 83°
2026-05-06 10:08 33.93944 -118.41053 99 ft 0 kts 83°